TimeCST,TemperatureF,Dew PointF,Humidity,Sea Level PressureIn,VisibilityMPH,Wind Direction,Wind SpeedMPH,Gust SpeedMPH,PrecipitationIn,Events,Conditions,WindDirDegrees,DateUTC
12:15 AM,23.0,17.6,80,30.25,10.0,NNW,8.1,-,N/A,,Overcast,330,2013-03-01 06:15:00
12:35 AM,23.0,17.6,80,30.25,10.0,NNW,12.7,-,N/A,,Overcast,330,2013-03-01 06:35:00
12:55 AM,23.0,15.8,74,30.25,10.0,NNW,10.4,-,N/A,,Overcast,330,2013-03-01 06:55:00
1:15 AM,23.0,15.8,74,30.26,10.0,NNW,10.4,-,N/A,,Overcast,340,2013-03-01 07:15:00
1:35 AM,23.0,17.6,80,30.26,10.0,NNW,11.5,-,N/A,,Overcast,330,2013-03-01 07:35:00
2:15 AM,23.0,17.6,80,30.26,10.0,NNW,10.4,-,N/A,,Overcast,330,2013-03-01 08:15:00
2:35 AM,23.0,17.6,80,30.26,10.0,NW,11.5,-,N/A,,Overcast,320,2013-03-01 08:35:00
2:55 AM,23.0,17.6,80,30.26,10.0,NNW,15.0,18.4,N/A,,Overcast,340,2013-03-01 08:55:00
3:55 AM,23.0,17.6,80,30.26,10.0,NNW,10.4,-,N/A,,Overcast,330,2013-03-01 09:55:00
4:15 AM,23.0,17.6,80,30.26,10.0,NW,9.2,-,N/A,,Overcast,320,2013-03-01 10:15:00
4:35 AM,23.0,17.6,80,30.26,10.0,NW,9.2,-,N/A,,Overcast,320,2013-03-01 10:35:00
4:55 AM,23.0,17.6,80,30.26,10.0,NW,9.2,-,N/A,,Overcast,320,2013-03-01 10:55:00
5:15 AM,23.0,17.6,80,30.26,10.0,NW,10.4,-,N/A,,Overcast,320,2013-03-01 11:15:00
5:35 AM,23.0,17.6,80,30.27,10.0,NNW,11.5,-,N/A,,Overcast,330,2013-03-01 11:35:00
6:15 AM,23.0,17.6,80,30.28,10.0,NW,11.5,-,N/A,,Overcast,320,2013-03-01 12:15:00
6:35 AM,23.0,15.8,74,30.28,10.0,NW,10.4,-,N/A,,Overcast,320,2013-03-01 12:35:00
6:55 AM,23.0,15.8,74,30.29,10.0,NW,9.2,-,N/A,,Overcast,310,2013-03-01 12:55:00
7:15 AM,23.0,17.6,80,30.29,10.0,NW,9.2,-,N/A,,Overcast,320,2013-03-01 13:15:00
7:35 AM,23.0,17.6,80,30.30,10.0,NW,11.5,-,N/A,,Overcast,310,2013-03-01 13:35:00
8:15 AM,23.0,17.6,80,30.31,10.0,NW,15.0,-,N/A,,Overcast,320,2013-03-01 14:15:00
8:35 AM,23.0,17.6,80,30.31,10.0,NW,11.5,-,N/A,,Overcast,320,2013-03-01 14:35:00
8:55 AM,24.8,17.6,74,30.32,10.0,NW,11.5,-,N/A,,Overcast,320,2013-03-01 14:55:00
9:15 AM,24.8,17.6,74,30.32,10.0,NNW,13.8,-,N/A,,Overcast,330,2013-03-01 15:15:00
9:35 AM,24.8,17.6,74,30.32,10.0,NNW,13.8,-,N/A,,Overcast,330,2013-03-01 15:35:00
9:55 AM,24.8,17.6,74,30.33,10.0,NNW,13.8,-,N/A,,Overcast,330,2013-03-01 15:55:00
10:15 AM,26.6,17.6,69,30.33,10.0,NW,13.8,-,N/A,,Mostly Cloudy,320,2013-03-01 16:15:00
10:35 AM,26.6,17.6,69,30.33,10.0,NNW,12.7,-,N/A,,Scattered Clouds,330,2013-03-01 16:35:00
10:55 AM,26.6,17.6,69,30.34,10.0,NNW,11.5,-,N/A,,Partly Cloudy,330,2013-03-01 16:55:00
11:15 AM,26.6,19.4,74,30.34,10.0,NW,12.7,19.6,N/A,,Mostly Cloudy,320,2013-03-01 17:15:00
11:35 AM,26.6,17.6,69,30.34,10.0,NW,11.5,-,N/A,,Mostly Cloudy,320,2013-03-01 17:35:00
11:55 AM,26.6,17.6,69,30.34,10.0,NNW,12.7,-,N/A,,Scattered Clouds,340,2013-03-01 17:55:00
12:15 PM,28.4,17.6,64,30.34,10.0,NNW,12.7,19.6,N/A,,Scattered Clouds,330,2013-03-01 18:15:00
12:35 PM,28.4,17.6,64,30.34,10.0,NNW,15.0,19.6,N/A,,Mostly Cloudy,330,2013-03-01 18:35:00
12:55 PM,28.4,17.6,64,30.34,10.0,NNW,17.3,20.7,N/A,,Mostly Cloudy,330,2013-03-01 18:55:00
1:15 PM,28.4,17.6,64,30.34,10.0,NNW,16.1,24.2,N/A,,Mostly Cloudy,340,2013-03-01 19:15:00
1:35 PM,28.4,17.6,64,30.33,10.0,NNW,15.0,20.7,N/A,,Mostly Cloudy,330,2013-03-01 19:35:00
1:55 PM,30.2,19.4,64,30.32,10.0,NNW,15.0,18.4,N/A,,Mostly Cloudy,330,2013-03-01 19:55:00
2:15 PM,28.4,19.4,69,30.32,10.0,NNW,13.8,-,N/A,,Partly Cloudy,330,2013-03-01 20:15:00
2:35 PM,28.4,19.4,69,30.31,10.0,NW,15.0,20.7,N/A,,Scattered Clouds,320,2013-03-01 20:35:00
2:55 PM,28.4,19.4,69,30.31,10.0,NW,13.8,-,N/A,,Mostly Cloudy,320,2013-03-01 20:55:00
3:15 PM,28.4,17.6,64,30.31,10.0,NNW,11.5,-,N/A,,Partly Cloudy,330,2013-03-01 21:15:00
3:35 PM,28.4,17.6,64,30.31,10.0,North,12.7,-,N/A,,Partly Cloudy,350,2013-03-01 21:35:00
3:55 PM,28.4,17.6,64,30.32,10.0,North,13.8,-,N/A,,Partly Cloudy,350,2013-03-01 21:55:00
4:15 PM,28.4,19.4,69,30.32,10.0,NNW,10.4,17.3,N/A,,Scattered Clouds,330,2013-03-01 22:15:00
4:35 PM,28.4,19.4,69,30.33,10.0,North,12.7,-,N/A,,Mostly Cloudy,350,2013-03-01 22:35:00
4:55 PM,28.4,17.6,64,30.33,10.0,NNW,12.7,-,N/A,,Partly Cloudy,340,2013-03-01 22:55:00
5:15 PM,26.6,19.4,74,30.34,10.0,NNW,11.5,-,N/A,,Partly Cloudy,330,2013-03-01 23:15:00
5:35 PM,26.6,17.6,69,30.34,10.0,NNW,10.4,-,N/A,,Partly Cloudy,330,2013-03-01 23:35:00
5:55 PM,26.6,17.6,69,30.34,10.0,NNW,10.4,-,N/A,,Partly Cloudy,330,2013-03-01 23:55:00
6:15 PM,24.8,17.6,74,30.35,10.0,NNW,8.1,-,N/A,,Clear,330,2013-03-02 00:15:00
6:35 PM,23.0,17.6,80,30.35,10.0,NNW,8.1,-,N/A,,Clear,340,2013-03-02 00:35:00
6:55 PM,21.2,17.6,86,30.35,10.0,NNW,6.9,-,N/A,,Clear,330,2013-03-02 00:55:00
7:15 PM,21.2,17.6,86,30.36,10.0,NNW,6.9,-,N/A,,Clear,340,2013-03-02 01:15:00
7:35 PM,21.2,17.6,86,30.36,10.0,North,4.6,-,N/A,,Clear,350,2013-03-02 01:35:00
7:55 PM,19.4,15.8,86,30.36,10.0,NNW,3.5,-,N/A,,Clear,340,2013-03-02 01:55:00
8:15 PM,17.6,14.0,86,30.36,10.0,NNW,4.6,-,N/A,,Clear,330,2013-03-02 02:15:00
8:35 PM,17.6,15.8,93,30.36,10.0,NNW,4.6,-,N/A,,Clear,330,2013-03-02 02:35:00
8:55 PM,17.6,15.8,93,30.37,10.0,NNW,4.6,-,N/A,,Clear,330,2013-03-02 02:55:00
9:15 PM,17.6,14.0,86,30.37,10.0,NNW,5.8,-,N/A,,Clear,330,2013-03-02 03:15:00
9:35 PM,17.6,15.8,93,30.37,10.0,NNW,5.8,-,N/A,,Clear,330,2013-03-02 03:35:00
9:55 PM,15.8,15.8,100,30.37,10.0,NNW,6.9,-,N/A,,Clear,330,2013-03-02 03:55:00
10:15 PM,15.8,14.0,93,30.36,10.0,NW,6.9,-,N/A,,Clear,320,2013-03-02 04:15:00
10:35 PM,15.8,15.8,100,30.36,10.0,NW,6.9,-,N/A,,Clear,320,2013-03-02 04:35:00
10:55 PM,15.8,12.2,86,30.35,10.0,NW,4.6,-,N/A,,Clear,320,2013-03-02 04:55:00
11:15 PM,12.2,10.4,92,30.35,10.0,NNW,3.5,-,N/A,,Clear,330,2013-03-02 05:15:00
11:35 PM,14.0,10.4,86,30.35,10.0,WNW,5.8,-,N/A,,Clear,300,2013-03-02 05:35:00